Glendive, MT

6:55 AM MDT on March 27, 2017 (GMT -0600)
Dawson Community

Weather History for KGDV - July, 2012

Change the Weather History Date:

Wednesday, July 11, 2012

  Actual Average Record
Temperature  
Mean Temperature 80 °F -  
Max Temperature 93 °F 83 °F 100 °F (2013)
Min Temperature 64 °F 56 °F 48 °F (1999)
Cooling Degree Days 14    
Growing Degree Days 30 (Base 50)    
Moisture  
Dew Point 55 °F    
Average Humidity 45    
Maximum Humidity 68    
Minimum Humidity 24    
Precipitation  
Precipitation 0.02 in - - ()
Sea Level Pressure  
Sea Level Pressure 29.95 in    
Wind  
Wind Speed 10 mph (NNE)    
Max Wind Speed 29 mph    
Max Gust Speed 38 mph    
Visibility 10 miles    
Events      
Averages and records for this station are not official NWS values.
T = Trace of Precipitation, MM = Missing Value Source: NWS Daily Summary

Daily Weather History Graph

Daily Weather History Graph

Search for Another Location

Airport or City:

Trip Planner

Search our weather history database for the weather conditions in past years. The results will help you decide how hot, cold, wet, or windy it might be!

Date:

Astronomy

Jul. 11, 2012 Rise Set
Actual Time 5:15 AM MDT 8:53 PM MDT
Civil Twilight 4:36 AM MDT 9:32 PM MDT
Nautical Twilight 3:44 AM MDT 10:23 PM MDT
Astronomical Twilight 2:33 AM MDT 11:34 PM MDT
Moon 12:03 AM MDT (7/11) 2:20 PM MDT (7/11)
Length of Visible Light 16h 55m
Length of Day
15h 38m
Last Quarter, 44% of the Moon is Illuminated
Jul 11
Last Quarter
Jul 18
New
Jul 26
First Quarter
Aug 1
Full
Aug 9
Last Quarter

Hourly Weather History & Observations

Time (MDT) Temp. Heat Index Dew Point Humidity Pressure Visibility Wind Dir Wind Speed Gust Speed Precip Events Conditions
12:15 AM 73.4 °F - 57.2 °F 57% 30.06 in 10.0 mi North 8.1 mph - N/A   Mostly Cloudy
12:55 AM 73.4 °F - 55.4 °F 53% 29.98 in 10.0 mi East 28.8 mph 38.0 mph 0.02 in   Mostly Cloudy
1:15 AM 73.4 °F - 55.4 °F 53% 29.97 in 10.0 mi ESE 20.7 mph 29.9 mph N/A   Clear
1:35 AM 73.4 °F - 53.6 °F 50% 29.97 in 10.0 mi South 12.7 mph - N/A   Clear
2:15 AM 73.4 °F - 53.6 °F 50% 29.95 in 10.0 mi SSE 11.5 mph - N/A   Clear
2:35 AM 73.4 °F - 53.6 °F 50% 29.95 in 10.0 mi SSE 6.9 mph - N/A   Clear
2:55 AM 73.4 °F - 53.6 °F 50% 29.93 in 10.0 mi South 6.9 mph - N/A   Clear
3:15 AM 73.4 °F - 53.6 °F 50% 29.93 in 10.0 mi Calm Calm - N/A   Clear
3:35 AM 69.8 °F - 55.4 °F 60% 29.94 in 10.0 mi NW 3.5 mph - N/A   Clear
3:55 AM 69.8 °F - 55.4 °F 60% 29.92 in 10.0 mi SW 10.4 mph - N/A   Clear
4:15 AM 69.8 °F - 55.4 °F 60% 29.91 in 10.0 mi SSW 8.1 mph - N/A   Clear
4:35 AM 69.8 °F - 53.6 °F 56% 29.90 in 10.0 mi SSW 9.2 mph - N/A   Clear
4:55 AM 69.8 °F - 53.6 °F 56% 29.91 in 10.0 mi SW 9.2 mph - N/A   Clear
5:15 AM 66.2 °F - 53.6 °F 64% 29.91 in 10.0 mi WSW 6.9 mph - N/A   Clear
5:35 AM 66.2 °F - 53.6 °F 64% 29.92 in 10.0 mi WSW 9.2 mph - N/A   Clear
5:55 AM 69.8 °F - 53.6 °F 56% 29.93 in 10.0 mi WSW 6.9 mph - N/A   Clear
6:15 AM 71.6 °F - 55.4 °F 57% 29.94 in 10.0 mi West 5.8 mph - N/A   Clear
6:35 AM 71.6 °F - 55.4 °F 57% 29.95 in 10.0 mi West 6.9 mph - N/A   Clear
6:55 AM 71.6 °F - 59.0 °F 64% 29.97 in 10.0 mi North 8.1 mph - N/A   Scattered Clouds
7:15 AM 69.8 °F - 57.2 °F 64% 29.98 in 10.0 mi NNE 5.8 mph - N/A   Mostly Cloudy
7:35 AM 69.8 °F - 57.2 °F 64% 29.98 in 10.0 mi NE 3.5 mph - N/A   Partly Cloudy
7:55 AM 73.4 °F - 59.0 °F 61% 29.98 in 10.0 mi NE 4.6 mph - N/A   Clear
8:15 AM 75.2 °F - 59.0 °F 57% 29.98 in 10.0 mi ENE 8.1 mph - N/A   Clear
8:35 AM 75.2 °F - 57.2 °F 53% 29.98 in 10.0 mi ENE 8.1 mph - N/A   Clear
8:55 AM 77.0 °F - 55.4 °F 47% 29.98 in 10.0 mi NE 9.2 mph - N/A   Clear
9:15 AM 78.8 °F - 55.4 °F 44% 29.98 in 10.0 mi NE 10.4 mph - N/A   Clear
9:35 AM 78.8 °F - 55.4 °F 44% 29.97 in 10.0 mi NE 10.4 mph - N/A   Clear
9:55 AM 80.6 °F 80.5 °F 55.4 °F 42% 29.97 in 10.0 mi ENE 10.4 mph - N/A   Clear
10:15 AM 80.6 °F 80.3 °F 53.6 °F 39% 29.97 in 10.0 mi ENE 8.1 mph - N/A   Clear
10:35 AM 82.4 °F 81.4 °F 53.6 °F 37% 29.97 in 10.0 mi East 8.1 mph - N/A   Clear
10:55 AM 82.4 °F 81.4 °F 53.6 °F 37% 29.97 in 10.0 mi ENE 8.1 mph - N/A   Clear
11:15 AM 82.4 °F 81.4 °F 53.6 °F 37% 29.96 in 10.0 mi East 8.1 mph - N/A   Clear
11:35 AM 84.2 °F 82.8 °F 53.6 °F 35% 29.95 in 10.0 mi NE 6.9 mph - N/A   Clear
11:55 AM 84.2 °F 83.0 °F 55.4 °F 37% 29.95 in 10.0 mi East 8.1 mph - N/A   Clear
12:15 PM 84.2 °F 82.8 °F 53.6 °F 35% 29.96 in 10.0 mi NNE 4.6 mph - N/A   Clear
12:35 PM 87.8 °F 86.1 °F 55.4 °F 33% 29.96 in 10.0 mi ENE 6.9 mph - N/A   Clear
12:55 PM 87.8 °F 86.1 °F 55.4 °F 33% 29.96 in 10.0 mi NE 4.6 mph - N/A   Clear
1:15 PM 87.8 °F 86.1 °F 55.4 °F 33% 29.95 in 10.0 mi NNE 6.9 mph - N/A   Clear
1:35 PM 87.8 °F 86.1 °F 55.4 °F 33% 29.94 in 10.0 mi North 9.2 mph - N/A   Clear
2:15 PM 89.6 °F 87.7 °F 55.4 °F 31% 29.94 in 10.0 mi Calm Calm - N/A   Clear
2:35 PM 89.6 °F 87.7 °F 55.4 °F 31% 29.94 in 10.0 mi NW 5.8 mph - N/A   Clear
2:55 PM 89.6 °F 88.1 °F 57.2 °F 33% 29.93 in 10.0 mi NNE 6.9 mph - N/A   Clear
3:15 PM 89.6 °F 87.7 °F 55.4 °F 31% 29.92 in 10.0 mi ESE 4.6 mph - N/A   Clear
3:35 PM 91.4 °F 89.4 °F 55.4 °F 29% 29.92 in 10.0 mi NE 3.5 mph - N/A   Clear
3:55 PM 91.4 °F 89.4 °F 55.4 °F 29% 29.91 in 10.0 mi NE 4.6 mph - N/A   Clear
4:15 PM 91.4 °F 89.4 °F 55.4 °F 29% 29.91 in 10.0 mi Calm Calm - N/A   Clear
4:35 PM 93.2 °F 90.8 °F 53.6 °F 26% 29.90 in 10.0 mi NNW 8.1 mph - N/A   Clear
4:55 PM 93.2 °F 90.8 °F 53.6 °F 26% 29.90 in 10.0 mi Calm Calm - N/A   Clear
5:35 PM 91.4 °F 89.1 °F 53.6 °F 28% 29.90 in 10.0 mi NNW 6.9 mph - N/A   Partly Cloudy
5:55 PM 93.2 °F 90.8 °F 53.6 °F 26% 29.90 in 10.0 mi NW 12.7 mph 18.4 mph N/A   Clear
6:15 PM 91.4 °F - 51.8 °F 26% 29.90 in 10.0 mi WNW 10.4 mph - N/A   Clear
6:35 PM 89.6 °F - 48.2 °F 24% 29.91 in 10.0 mi NW 10.4 mph - N/A   Clear
7:15 PM 89.6 °F - 50.0 °F 26% 29.91 in 10.0 mi NNW 9.2 mph - N/A   Clear
7:35 PM 84.2 °F 83.0 °F 55.4 °F 37% 29.93 in 10.0 mi NE 10.4 mph - N/A   Clear
7:55 PM 84.2 °F 83.0 °F 55.4 °F 37% 29.93 in 10.0 mi NNE 10.4 mph - N/A   Clear
8:15 PM 80.6 °F 80.5 °F 55.4 °F 42% 29.94 in 10.0 mi North 18.4 mph - N/A   Clear
8:35 PM 78.8 °F - 53.6 °F 42% 29.94 in 10.0 mi NNE 13.8 mph - N/A   Clear
8:55 PM 78.8 °F - 53.6 °F 42% 29.95 in 10.0 mi NNE 10.4 mph - N/A   Clear
9:15 PM 75.2 °F - 53.6 °F 47% 29.96 in 10.0 mi NE 18.4 mph - N/A   Clear
9:35 PM 75.2 °F - 53.6 °F 47% 29.96 in 10.0 mi NNE 16.1 mph - N/A   Clear
9:55 PM 73.4 °F - 53.6 °F 50% 29.97 in 10.0 mi NNE 16.1 mph - N/A   Clear
10:15 PM 73.4 °F - 53.6 °F 50% 29.98 in 10.0 mi NE 11.5 mph - N/A   Clear
10:35 PM 71.6 °F - 51.8 °F 50% 29.98 in 10.0 mi NE 9.2 mph - N/A   Clear
10:55 PM 69.8 °F - 53.6 °F 56% 29.98 in 10.0 mi East 5.8 mph - N/A   Clear
11:15 PM 68.0 °F - 53.6 °F 60% 29.98 in 10.0 mi NNE 9.2 mph - N/A   Clear
11:35 PM 66.2 °F - 53.6 °F 64% 29.98 in 10.0 mi Calm Calm - N/A   Clear
11:55 PM 64.4 °F - 53.6 °F 68% 29.98 in 10.0 mi Calm Calm - N/A   Clear